STARLINK-1891 (47174 NORAD) Tracking and Keplerian Element Data
This shows tracking and keplerian element data for the satellite.
Feedback or suggestion? Click here.
Element | Value |
Catalog | 47174 |
Name | STARLINK-1891 |
Epoch Orbit | 181 |
Epoch Day | 99.91667824 |
Epoch Year | 2021 |
RAAN | 78.6694 |
Inclination | 53.0557 |
Eccentricity | 0.0001272 |
Argument of Perigee | 75.5012 |
Mean Anonmoly | 345.3982 |
Mean Motion | 15.06397612 |
Decay Rate | 0.0002433 |
L1 | 1 47174U 20088BE 21099.91667824 .00024330 00000-0 16467-2 0 9993 |
L2 | 2 47174 53.0557 78.6694 0001272 75.5012 345.3982 15.06397612 1816 |
Live tracking and technical data element details for STARLINK-1891 (NORAD 47174). STARLINK-1891 can be tracked NOW for your location showing map with azimuth and elevation plus other details from your city location.
Track the satellite on the map from your city or location and see movement details for azimuth, elevation, latitude, longitude, range, height, and movement on the map or in text.
IsCatalogInMostPopularTable: catalog: 47174, numindb: 55
Update: records affected: 1
GetName: 47174 STARLINK-1891
Hit Count: updated at: Sat, 10 Apr 2021 19:53:14 GMT